Retour au catalogue

STARLINK-5798

ActifCommunicationsVLEO
NORAD 56040·PAYLOAD·🇺🇸 United States

Lancé Mar 24, 2023 depuis Cape Canaveral Space Force Station

Loading…

Prochains Passages (prochaines 24 heures)

TLE

FraisSource: CelesTrak SupGP

Époque: Sep 14, 2026, 14:16 UTC

1 56040C 23042BG  26257.59493056 -.00022044  00000+0 -79862-3 0  2574
2 56040  43.0015  44.1888 0001605 260.9243 306.6220 15.27581814    13

Suivez STARLINK-5798 en temps réel avec AllMySat

Download on the App Store